User: anonymous   Login
Location: Mouss�
(47.9236°N, 1.2701°W)
Time: 17:55:28
(UTC+00:00)
Language:

Cosmos 2219 Rocket - Orbit

View from above orbital plane
View from above orbital plane
View from above satellite
View from above satellite

Ground track
Ground track

The orbit data is extracted from the following two-line orbital elements,

1 22220U 92076B   21129.22007985 -.00000075  00000-0 -13595-4 0  9991
2 22220  70.9991 305.8191 0015054 266.2551 267.0916 14.16467604472131
Epoch (UTC): 09 May 2021 05:16:54
Eccentricity: 0.0015054
inclination: 70.9991°
perigee height: 826 km
apogee height: 848 km
right ascension of ascending node: 305.8191°
argument of perigee: 266.2551°
revolutions per day: 14.16467604
mean anomaly at epoch: 267.0916°
orbit number at epoch: 47213

The dashed part of the orbit path shows where the satellite is in the earth's shadow,  

DLR